Dauntless Aviation
Airports North America Canada
CYLW
YLW

Kelowna International Airport

Kelowna, BC, CANADA

Airport Info
Suggest Updated Information for this Airport

Location

Latitude / Longitude: 49°53'0"N / 119°29'35"W
  49°53.016'N / 119°29.598'W
  49.8836 / -119.4933

Nearby radio navigation aids

EX RUTLAND NDB. 335.5° 1.0nm from EX to field.
LW KELOWNA NDB. 147.1° 6.5nm from LW to field.

Runway Information

Runway 16 /34

Dimensions: 7300 x 200 ft.
Surface: ASP
 
Runway 16
Runway 34
Latitude: 49.966 49.946278
Longitude: -119.378961 -119.376461
Elevation: 1409 ft. 1409 ft.
Runway true heading: 166.6 346.6
 

Instrument Procedures

  Aerodrome Chart
  Parking Areas
  CAC: Aerodrome Chart
  CAC: Parking Areas - Apron I
  CAC: Parking Areas - Apron III

IAPs (Instrument Approach Procedures)

  CFS: KELOWNA VFR Terminal Procedures Chart
  CFS: KELOWNA VFR Terminal Procedures Chart - Night Circuit Procedure
  CFS: Aerodrome Information
  CFS: Aerodrome Information (Part 2)
  DATBO ONE ARR (DATBO.DATBO 1)
  LENUR ONE ARR (LENUR.LENUR 1)
  RNAV (GNSS) A
  NDB B (GNSS)
  ILS/DME 1 Rwy 16
  Night Circuit Procedures
  KELOWNA FIVE DEP (YLW 5.)

Departure Procedures

  Departure Procedure
Satellite photo at:
Airport distance calculator
From:
Weather Reports

METAR

CYLW

CYLW 230600Z AUTO 16006KT 9SM BKN035 BKN055 OVC070 06/03 A2986 RMK SLP122
CWUS
20.0nm S
CWUS 230600Z AUTO 21004KT 08/02 RMK AO1 PK WND 17018/0507 SLP115 T00810022 53012
CWJV
23.3nm N
CWJV 230600Z AUTO 07003KT 04/02 RMK AO1 SLP112 T00370021 53015
CYYF
25.3nm S
CYYF 230600Z 18011KT 15SM SCT040 BKN080 08/04 A2987 RMK SC3AC3 SLP123

TAF

CYLW
TAF CYLW 230038Z 2301/2313 20005KT P6SM SCT030 BKN050 TEMPO 2301/2304 P6SM -SHRA BKN030 OVC050 FM230400 16008KT P6SM SCT050 TEMPO 2304/2307 BKN050 BECMG 2309/2311 VRB03KT RMK FCST BASED ON AUTO OBS. NXT FCST BY 230700Z
CYYF
25.3nm S
TAF CYYF 230038Z 2301/2313 18010KT P6SM SCT040 BKN090 TEMPO 2301/2305 P6SM -SHRA BKN040 BECMG 2301/2303 18008KT FM230500 17007KT P6SM SCT060 TEMPO 2305/2313 BKN060 BECMG 2307/2309 VRB03KT RMK NXT FCST BY 230700Z
Safelog

 

Dauntless Aviation

© 2007-2017 Dauntless Aviation, all rights reserved
Information provided via PilotNav comes from a variety of official and unofficial data sources. As errors are possible, do not use PilotNav for primary flight planning purposes. Verify any information that you receive via PilotNav with current and canonical charts and other official documents. The material in this database is subject to database copyrights held by Dauntless Aviation and may not be copied without the express permission of Dauntless Aviation - licenses for use of part of all of this data are available for purchase; enquire via the Dauntless Aviation helpdesk. A number of mechanisms and markers exist in the database to protect against and identify infringement / copyright. Automated queries against this website are stictly prohibited, and all activity is logged and analyzed.